User: anonymous   Login
Location: Vancouver
(49.2500°N, 123.1330°W)
Time: 01:13:07
(UTC-07:00)
Language:

Oscar 11 - Orbit

View from above orbital plane
View from above orbital plane
View from above satellite
View from above satellite

Ground track
Ground track

The orbit data is extracted from the following two-line orbital elements,

1 14781U 84021B   15124.15856897  .00000635  00000-0  85877-4 0  9991
2 14781 097.8057 182.3160 0007968 205.9188 154.1627 14.82337306675509
Epoch (UTC): 04 May 2015 03:48:20
Eccentricity: 0.0007968
inclination: 97.8057°
perigee height: 616 km
apogee height: 627 km
right ascension of ascending node: 182.3160°
argument of perigee: 205.9188°
revolutions per day: 14.82337306
mean anomaly at epoch: 154.1627°
orbit number at epoch: 67550

The dashed part of the orbit path shows where the satellite is in the earth's shadow,  

DLR